星链-4774 (STARLINK-4774 )

导读 | 星芒AI

STARLINK-4774 是 SpaceX Starlink 卫星互联网项目中的一颗低轨卫星,属于第 21 批部署的星链卫星之一。该卫星于 2023 年发射,运行在约 550 公里的轨道高度,旨在为全球用户提供高速互联网服务。作为星链星座的一部分,STARLINK-4774 采用先进通信技术,支持宽带连接,尤其服务于传统网络难以覆盖的偏远地区。其设计具备高可靠性和可操作性,有助于提升全球网络接入的普及率与质量。

基本信息
目录编号:
56138
目录名称:
STARLINK-4774
国际标识:
2023-046AY
轨道中心:
EARTH
卫星名称:
星链-4774
卫星全名:
星链-4774 (STARLINK-4774 )
卫星状态:
在轨 (已飞行952 天)
发射日期:
2023-03-29 UTC
国别 :
美国 (US)
星等 :
--
轨道信息
数据来源 国际轨道数据 AOE轨道数据
星历时间 2025-11-04T20:26:10+0800
11小时前
查看轨道信息
2025-11-04T10:00:00+0800
22小时前
查看轨道信息
半长轴 6937.217km 6937.224km
偏心率 0.0001227 0.0000068
轨道倾角 43.003° 43.003°
近地点辐角 263.748° 192.535°
升交点赤经 106.053° 108.417°
平近点角 96.322° 332.759°
近地点 558.23km 559.041km
远地点 559.934km 559.137km
周期 95.838分钟 95.838分钟
每日圈数 15.02536 15.025336
详细信息
固有亮度:
5
最大亮度:
2.5
卫星平台:
Starlink v1.5
覆盖范围:
全球
运营商:
太空探索技术公司
运营商所在国:
美国
制造商(研发单位):
太空探索技术公司
制造商所在国:
美国
使用方式:
暂无
卫星简介
星链(Starlink)计划是由太空探索技术公司(SpaceX)提出的一个巨型低轨卫星互联网星座项目,计划在2019年至2024年间在太空搭建由约1.2万颗卫星组成的“星链”网络,其中1584颗将部署在地球上空550千米处的近地轨道,并从2020年开始工作。该卫星仍在工作。
2D轨道图
3D轨道图
轨道高度分析图
轨道倾角分析图
轨道综合分析图
查看轨道综合分析图